Location: Devore Heights
(34.2372°N, 117.4156°W)
Time: 19:41:53
(UTC+00:00)

S-56A Canister/Altair - Pass Details

Date: 14 September 2024
Orbit: 636 x 2487 km, 38.9° (Epoch: 14 October)

Event Time Altitude Azimuth Distance (km) Brightness Sun altitude
Rises 02:20:25 0° 243° (WSW) 3,131 11.7 -5.4°
Reaches altitude 10° 02:22:30 10° 243° (WSW) 2,330 11.0 -5.8°
Maximum altitude 02:27:53 81° 156° (SSE) 990 8.0 -6.9°
Drops below altitude 10° 02:35:55 10° 70° (ENE) 3,401 10.3 -8.6°
Enters shadow 02:37:50 - 70° (ENE) 4,090 10.7 -9.0°
Sets 02:39:32 0° 70° (ENE) 4,687 - -9.3°
